A/2019 Y5

Japanese version
Home page
Updated on April 17, 2020

---------------------------------------------------------------------

* Profile

Discovery Date December 28, 2019
Magnitude 21.47 mag
Discoverer Pan-STARRS 1 telescope (Haleakala)

* Orbital Elements

Epoch 2019 Aug. 25.0 TT = JDT 2458720.5
T 2019 Aug. 18.16048 TT                                 Rudenko
q   4.9145198            (2000.0)            P               Q
z  +0.0013400      Peri.  303.50239     +0.42318369     +0.46196418
 +/-0.0000030      Node    51.77143     +0.66793553     +0.42218578
e   0.9934144      Incl.   82.84186     -0.61219089     +0.77996683
H   14.0
From 47 observations 2019 Sept. 11-2020 Feb. 26, mean residual 0".4.

* Magnitudes Graph

        H = 14.0  G = 0.15

---------------------------------------------------------------------

The orbital elements are published on M.P.E.C. 2020-E26.
The magnitudes graphs are made with Comet for Windows.

---------------------------------------------------------------------

Copyright(C) Seiichi Yoshida (comet@aerith.net). All rights reserved.